Berlin, MD

3:14 PM EST on February 20, 2017 (GMT -0500)
Ocean City Municipal

Weather History for KOXB - August, 2014

Change the Weather History Date:

Sunday, August 17, 2014

  Actual Average (KSBY) Record (KSBY)
Temperature  
Mean Temperature 74 °F -  
Max Temperature 87 °F 85 °F 97 °F (1997)
Min Temperature 62 °F 66 °F 52 °F (1979)
Cooling Degree Days 9    
Growing Degree Days 24 (Base 50)    
Moisture  
Dew Point 65 °F    
Average Humidity 75    
Maximum Humidity 96    
Minimum Humidity 46    
Precipitation  
Precipitation 0.00 in - - ()
Sea Level Pressure  
Sea Level Pressure 29.91 in    
Wind  
Wind Speed 3 mph (West)    
Max Wind Speed 14 mph    
Max Gust Speed 22 mph    
Visibility 8 miles    
Events      
Averages and records for this station are not official NWS values.
T = Trace of Precipitation, MM = Missing Value Source: NWS Daily Summary

Daily Weather History Graph

Daily Weather History Graph

Search for Another Location

Airport or City:

Trip Planner

Search our weather history database for the weather conditions in past years. The results will help you decide how hot, cold, wet, or windy it might be!

Date:

Astronomy

Aug. 17, 2014 Rise Set
Actual Time 6:16 AM EDT 7:51 PM EDT
Civil Twilight 5:48 AM EDT 8:19 PM EDT
Nautical Twilight 5:14 AM EDT 8:53 PM EDT
Astronomical Twilight 4:39 AM EDT 9:28 PM EDT
Moon No Moon Rise 1:53 PM EDT (8/17)
Length of Visible Light 14h 30m
Length of Day
13h 34m
Waning Gibbous, 48% of the Moon is Illuminated
Aug 17
Waning Gibbous
Aug 25
New
Sep 2
First Quarter
Sep 8
Full
Sep 15
Last Quarter

Hourly Weather History & Observations

Time (EDT) Temp. Heat Index Dew Point Humidity Pressure Visibility Wind Dir Wind Speed Gust Speed Precip Events Conditions
12:53 AM 62.1 °F - 61.0 °F 96% 29.96 in 4.0 mi Calm Calm - N/A   Clear
1:53 AM 63.0 °F - 61.0 °F 93% 29.94 in 3.0 mi Calm Calm - N/A   Clear
3:53 AM 62.1 °F - 60.1 °F 93% 29.93 in 3.0 mi Calm Calm - N/A   Clear
4:53 AM 62.1 °F - 60.1 °F 93% 29.92 in 7.0 mi Calm Calm - N/A   Clear
5:53 AM 64.0 °F - 63.0 °F 96% 29.93 in 6.0 mi Calm Calm - N/A   Clear
6:53 AM 70.0 °F - 66.0 °F 87% 29.93 in 9.0 mi WSW 6.9 mph - N/A   Clear
7:53 AM 73.0 °F - 68.0 °F 84% 29.93 in 9.0 mi West 6.9 mph - N/A   Partly Cloudy
8:53 AM 73.0 °F - 68.0 °F 84% 29.94 in 9.0 mi WNW 5.8 mph - N/A   Clear
9:53 AM 75.0 °F - 66.9 °F 76% 29.94 in 10.0 mi West 4.6 mph - N/A   Partly Cloudy
10:53 AM 82.0 °F 84.1 °F 66.0 °F 58% 29.93 in 10.0 mi NNW 4.6 mph - N/A   Clear
11:53 AM 84.0 °F 85.8 °F 64.9 °F 53% 29.92 in 10.0 mi West 8.1 mph - N/A   Clear
12:53 PM 84.9 °F 86.6 °F 64.9 °F 51% 29.91 in 10.0 mi West 9.2 mph - N/A   Partly Cloudy
1:53 PM 84.9 °F 85.9 °F 63.0 °F 48% 29.89 in 10.0 mi West 13.8 mph - N/A   Mostly Cloudy
2:53 PM 86.0 °F 87.3 °F 64.0 °F 48% 29.88 in 10.0 mi West 10.4 mph - N/A   Partly Cloudy
3:53 PM 86.0 °F 86.8 °F 63.0 °F 46% 29.87 in 10.0 mi West 13.8 mph - N/A   Partly Cloudy
4:53 PM 84.0 °F 84.9 °F 63.0 °F 49% 29.87 in 10.0 mi West 12.7 mph 21.9 mph N/A   Clear
6:53 PM 81.0 °F 83.3 °F 66.9 °F 62% 29.87 in 10.0 mi West 5.8 mph - N/A   Clear
7:53 PM 77.0 °F - 68.0 °F 74% 29.88 in 9.0 mi Calm Calm - N/A   Clear
8:53 PM 75.0 °F - 69.1 °F 82% 29.90 in 9.0 mi ENE 3.5 mph - N/A   Clear
9:53 PM 72.0 °F - 66.9 °F 84% 29.91 in 6.0 mi Calm Calm - N/A   Haze
10:53 PM 70.0 °F - 68.0 °F 93% 29.91 in 6.0 mi Calm Calm - N/A   Partly Cloudy
11:53 PM 69.1 °F - 66.9 °F 93% 29.91 in 5.0 mi Calm Calm - N/A   Scattered Clouds